[[{"header":{"parameterUnit":"m.s-1","parameterCategory":1,"la1":30.2991,"la2":30.254,"lo1":-89.0895,"lo2":-89.0444,"dy":0.0017,"dx":0.0017,"nx":28,"ny":28,"refTime":"2025-07-07T09:00:00:Z","depth":0,"parameterNumber":2,"parameterNumberName":"U-component_of_WINDS"},"data":[0,0,0,0,0,0,0,0,0,0,0,0,0,0,0,0,0,0,0,0,0,0,0,0,0,0,0,0,0,0,0,0,0,0,0,0,0,0,0,0,0,0,0,0,0,0,0,0,0,0,0,0,0,0,0,0,0,0,0.9644,0.9646,0,0.977,0.9771,0.9773,0.9818,0.9818,0.9818,0.9817,0.9947,0.9951,0.9955,0,0,0,0,0,0,0,0,0,0,0,0,0,0.9443,0.9446,0.9644,0.9646,0.9647,0.977,0.9772,0.9773,0.9819,0.9818,0.9817,0.9817,0.9946,0.995,0.9955,0,0,0,0,0,0,0,0,0,0,0,0,0,0.9546,0.9447,0.9644,0.9685,0.9689,0.9769,0.9772,0.9774,0.9819,0.9818,0.9817,0.9817,0.9944,0.995,0.9956,1.0005,0,0,0.9973,0.9976,0,0,0,0,0,0,0,0,0.954,0.9553,0.9677,0.9682,0.9688,0.9778,0.9748,0.9851,0.9819,0.977,0.9817,0.9816,0.9891,0.9902,0.9927,1.0011,1.0016,0.9974,0.9977,0.998,0.9982,0,0,0,0,0,0,0,0.9532,0.9548,0.9694,0.9679,0.9685,0.9697,0.971,0.9768,0.9833,0.9774,0.9777,0.9792,0.9894,0.9921,0.993,1.0018,0.9974,0.9979,0.9983,0.9985,1.0148,1.0148,0,0,0,0,0,0,0.9518,0.9541,0.969,0.9698,0.961,0.9701,0.9716,0.975,0.9832,0.9844,0.9792,0.9793,0.9911,0.9923,0.9935,0.9997,0.998,0.9985,0.9989,1.0147,1.0148,1.0149,0,0,0,0,0,0,0.9514,0.9531,0.9685,0.9621,0.9641,0.9705,0.9742,0.9752,0.9779,0.9846,0.9858,0.9808,0.9911,0.9927,0.9987,1.0002,0.9988,0.9993,1.0146,1.0147,1.0148,1.0121,0,0,0,0,0,0,0.9508,0.9529,0.9549,0.9621,0.9644,0.9735,0.9743,0.9755,0.9789,0.9792,0.9864,0.9875,0.9912,0.9978,0.9992,1.001,0.9998,1.0145,1.0146,1.0148,1.0121,1.0121,1.0122,0,0,0,0,0,0.9501,0.9537,0.955,0.9567,0.967,0.9735,0.9749,0.979,0.979,0.981,0.9852,0.9873,0.9998,0.9983,1.0,1.0019,1.0144,1.0146,1.0148,1.0121,1.0121,1.0122,0,0,0,0,0,0,0.9466,0.9547,0.9562,0.9623,0.9671,0.9743,0.9769,0.979,0.984,0.9841,0.9891,0.9907,0.9962,0.9997,0.998,1.0071,1.0072,1.0077,1.0046,1.0047,1.0047,1.0037,1.0003,0,0,0,0,0,0.9465,0.9511,0.958,0.9626,0.965,0.9705,0.9735,0.9763,0.9816,0.9837,0.9884,0.9935,0.9986,1.0018,1.0069,1.0126,1.0142,1.0148,1.0148,1.0148,1.0152,1.0183,1.0186,1.0155,1.0155,1.0155,0,0,0.9464,0.9514,0.954,0.9621,0.9662,0.9708,0.9723,0.9772,0.9807,0.9845,0.9904,0.994,1.0,1.0058,1.0087,1.0089,1.0164,1.015,1.015,1.0154,1.0186,1.0189,1.0191,1.0156,1.0156,1.0156,0,0,0.9486,0.9529,0.9572,0.9612,0.9674,0.9711,0.9721,0.9789,0.9814,0.9874,0.9903,0.9946,1.0032,1.0073,1.0105,1.0141,1.0161,1.0156,1.0158,1.0188,1.019,1.0193,1.0205,1.0209,1.016,1.016,1.016,0,0.9477,0.9548,0.9591,0.9638,0.9672,0.9708,0.9752,0.9789,0.9865,0.9887,0.9889,0.9997,1.004,1.0108,1.0116,1.0142,1.0154,1.0148,1.0187,1.0189,1.0192,1.0204,1.0209,1.0159,1.0159,1.0159,1.0159,0,0.9534,0.9582,0.961,0.968,0.9718,0.9763,0.9812,0.9844,0.9868,0.9904,0.9964,1.0017,1.0078,1.0096,1.0121,1.0167,1.0167,1.0177,1.0179,1.0194,1.0205,1.021,1.0157,1.0158,1.0158,1.0158,0,0,0.9538,0.9631,0.964,0.9672,0.9742,0.9781,0.9827,0.9886,0.9912,0.9963,1.0002,1.0074,1.0083,1.012,1.0149,1.0176,1.0199,1.0183,1.0185,1.0183,1.0253,1.0244,1.0249,1.0213,1.0214,1.0215,1.0247,0,0.9568,0.9652,0.9691,0.9758,0.9803,0.9837,0.9877,0.9924,0.9959,1.0002,1.004,1.009,1.0099,1.0121,1.0149,1.019,1.0214,1.0188,1.025,1.0251,1.0233,1.0255,1.0247,1.0275,1.0252,1.0253,1.0254,0,0.9615,0.9664,0.9735,0.9798,0.9819,0.9854,0.9911,0.9952,1.0006,1.0029,1.0069,1.0097,1.0146,1.0145,1.0213,1.0195,1.0222,1.0247,1.0249,1.0256,1.0253,1.0262,1.0285,1.0289,1.0262,1.0261,1.026,0,0.961,0.9694,0.9747,0.9773,0.9849,0.9873,0.9905,0.9959,0.9991,1.0041,1.0062,1.0117,1.0147,1.0188,1.023,1.0226,1.0294,1.0297,1.0315,1.0313,1.0328,1.0326,1.0355,1.0346,1.0346,1.0345,1.0345,0,0.964,0.9681,0.9745,0.9777,0.9825,0.9869,0.9915,0.995,0.9997,1.0037,1.007,1.0106,1.0159,1.0202,1.0235,1.0286,1.03,1.032,1.0328,1.0317,1.0314,1.0335,1.0334,1.0347,1.0346,1.0346,1.0346,0,0.9642,0.9686,0.9746,0.9812,0.983,0.9861,0.9918,0.9951,0.9986,1.0036,1.005,1.0106,1.0158,1.0204,1.0274,1.0296,1.0348,1.0358,1.0329,1.0334,1.0348,1.0346,1.0391,1.0399,1.0385,1.0385,1.0385,0,0.9657,0.969,0.9759,0.9788,0.982,0.9865,0.9898,0.9943,0.9976,1.0039,1.0064,1.0119,1.0165,1.0246,1.0293,1.0346,1.0358,1.037,1.0366,1.0353,1.0357,1.0355,1.0358,1.037,1.037,1.037,1.037,0,0.968,0.97,0.9746,0.98,0.9838,0.9882,0.9928,0.9949,1.0002,1.0038,1.0091,1.0127,1.0197,1.025,1.0308,1.0342,1.0364,1.037,1.0377,1.0366,1.0347,1.0357,1.0328,1.0369,1.0369,1.0369,1.0369,1.0369,0.9689,0.9719,0.9772,0.9822,0.9861,0.9902,0.9935,0.9974,1.002,1.008,1.0104,1.0158,1.021,1.029,1.0324,1.0366,1.037,1.038,1.0383,1.0385,1.0382,1.034,1.0377,1.0377,1.0377,1.0378,1.0378,0,0.9713,0.9748,0.9794,0.9856,0.9894,0.9912,0.9962,0.9994,1.0041,1.0088,1.0132,1.0193,1.0244,1.0295,1.0349,1.0374,1.0385,1.0386,1.0385,1.0392,1.0376,1.0364,1.0376,1.0376,1.0376,1.0376,1.0376,1.0376,0.973,0.9781,0.9807,0.9878,0.9913,0.9966,0.9993,1.0031,1.0069,1.0135,1.0177,1.021,1.0258,1.0316,1.0364,1.0377,1.0395,1.0393,1.041,1.0394,1.0393,1.0393,1.0382,1.0397,1.0397,1.0422,1.0422,1.0423]},{"header":{"parameterUnit":"m.s-1","parameterCategory":1,"la1":30.2991,"la2":30.254,"lo1":-89.0895,"lo2":-89.0444,"dy":0.0017,"dx":0.0017,"nx":28,"ny":28,"refTime":"2025-07-07T09:00:00:Z","depth":0,"parameterNumber":3,"parameterNumberName":"V-component_of_WINDS"},"data":[0,0,0,0,0,0,0,0,0,0,0,0,0,0,0,0,0,0,0,0,0,0,0,0,0,0,0,0,0,0,0,0,0,0,0,0,0,0,0,0,0,0,0,0,0,0,0,0,0,0,0,0,0,0,0,0,0,0,1.1003,1.1005,0,1.1157,1.1159,1.1161,1.1216,1.1216,1.1215,1.1215,1.1366,1.137,1.1375,0,0,0,0,0,0,0,0,0,0,0,0,0,1.0749,1.0753,1.1003,1.1005,1.1007,1.1157,1.1159,1.1161,1.1216,1.1216,1.1215,1.1214,1.1364,1.137,1.1375,0,0,0,0,0,0,0,0,0,0,0,0,0,1.0876,1.0755,1.1003,1.1053,1.1059,1.1157,1.1159,1.1162,1.1216,1.1216,1.1215,1.1214,1.1363,1.1369,1.1376,1.1433,0,0,1.1396,1.1399,0,0,0,0,0,0,0,0,1.0869,1.0886,1.1043,1.1049,1.1056,1.1167,1.1125,1.1253,1.1217,1.1156,1.1215,1.1214,1.13,1.1312,1.1342,1.144,1.1447,1.1397,1.1401,1.1404,1.1406,0,0,0,0,0,0,0,1.086,1.0879,1.1064,1.1045,1.1053,1.1065,1.1082,1.1149,1.123,1.1161,1.1166,1.1184,1.1303,1.1335,1.1346,1.1449,1.1397,1.1403,1.1407,1.141,1.16,1.1601,0,0,0,0,0,0,1.0844,1.0872,1.1059,1.1069,1.0959,1.107,1.1089,1.1132,1.123,1.1244,1.1184,1.1186,1.1324,1.1338,1.1352,1.1425,1.1404,1.141,1.1414,1.1599,1.1601,1.1602,0,0,0,0,0,0,1.0838,1.086,1.1053,1.0971,1.0997,1.1075,1.1123,1.1135,1.1168,1.1247,1.1261,1.1203,1.1324,1.1342,1.1413,1.1431,1.1413,1.142,1.1598,1.16,1.1601,1.1573,0,0,0,0,0,0,1.0831,1.0858,1.0883,1.0972,1.1001,1.1114,1.1124,1.1139,1.118,1.1184,1.1268,1.1282,1.1325,1.1402,1.1419,1.144,1.1425,1.1597,1.1599,1.1601,1.1572,1.1573,1.1573,0,0,0,0,0,1.0822,1.0867,1.0884,1.0906,1.1034,1.1115,1.1131,1.1182,1.1182,1.1206,1.1256,1.1279,1.1426,1.1409,1.1429,1.1452,1.1596,1.1598,1.1601,1.1572,1.1573,1.1573,0,0,0,0,0,0,1.0776,1.088,1.0899,1.0976,1.1036,1.1124,1.1157,1.1182,1.1242,1.1242,1.1301,1.1319,1.1385,1.1425,1.1405,1.1512,1.1512,1.1518,1.1484,1.1485,1.1486,1.1475,1.1431,0,0,0,0,0,1.0776,1.0835,1.0921,1.098,1.101,1.1077,1.1115,1.1149,1.1213,1.1238,1.1294,1.1353,1.1413,1.1451,1.151,1.1577,1.1596,1.1603,1.1603,1.1603,1.1608,1.1646,1.1649,1.1609,1.1609,1.1609,0,0,1.0774,1.0838,1.0872,1.0973,1.1024,1.1082,1.1099,1.116,1.1202,1.1247,1.1318,1.136,1.143,1.1499,1.1532,1.1535,1.1623,1.1606,1.1606,1.1611,1.1648,1.1652,1.1655,1.1611,1.161,1.161,0,0,1.0802,1.0856,1.0911,1.0962,1.104,1.1084,1.1097,1.1181,1.1211,1.1284,1.1318,1.1368,1.1469,1.1518,1.1556,1.1598,1.1621,1.1616,1.1619,1.1655,1.1658,1.1661,1.1676,1.1681,1.162,1.162,1.162,0,1.079,1.0881,1.0936,1.0995,1.1037,1.1081,1.1136,1.1182,1.1273,1.13,1.1302,1.143,1.148,1.156,1.1571,1.16,1.1615,1.1607,1.1654,1.1657,1.1661,1.1676,1.1681,1.1619,1.1619,1.1619,1.1619,0,1.0862,1.0924,1.0959,1.1049,1.1095,1.1151,1.1212,1.1251,1.128,1.1323,1.1395,1.1456,1.1528,1.1549,1.1577,1.1633,1.1632,1.1643,1.1645,1.1663,1.1678,1.1684,1.1617,1.1618,1.1618,1.1618,0,0,1.0867,1.0986,1.0998,1.1038,1.1126,1.1174,1.123,1.1303,1.1335,1.1396,1.1444,1.1528,1.1538,1.1581,1.1614,1.1645,1.1674,1.1652,1.1655,1.1654,1.1738,1.173,1.1736,1.1689,1.1691,1.1692,1.1732,0,1.0907,1.1014,1.1063,1.1147,1.1204,1.1245,1.1295,1.1352,1.1393,1.1445,1.149,1.1549,1.1558,1.1584,1.1616,1.1664,1.1692,1.1662,1.1733,1.1735,1.1715,1.1744,1.1736,1.1772,1.1738,1.174,1.174,0,1.0968,1.103,1.112,1.12,1.1226,1.127,1.1339,1.1389,1.1454,1.1481,1.1528,1.156,1.1619,1.1615,1.1695,1.1673,1.1705,1.1732,1.1735,1.1744,1.1739,1.1754,1.1785,1.179,1.175,1.1749,1.1748,0,1.0962,1.1069,1.1137,1.117,1.1265,1.1294,1.1334,1.1399,1.1438,1.1497,1.1523,1.1588,1.1623,1.167,1.1718,1.1711,1.1793,1.1794,1.1816,1.1815,1.1833,1.1831,1.1869,1.1851,1.1851,1.1851,1.1851,0,1.1002,1.1055,1.1136,1.1177,1.1237,1.1292,1.1349,1.1392,1.1448,1.1496,1.1534,1.1578,1.1638,1.1689,1.1726,1.1786,1.1801,1.1824,1.1833,1.1821,1.1818,1.1843,1.1842,1.1853,1.1852,1.1852,1.1852,0,1.1007,1.1064,1.114,1.1223,1.1245,1.1285,1.1355,1.1396,1.1438,1.1499,1.1516,1.1581,1.1643,1.1695,1.1775,1.18,1.1862,1.1873,1.1841,1.1846,1.1866,1.1863,1.1922,1.1932,1.1906,1.1907,1.1907,0,1.1029,1.1072,1.1159,1.1196,1.1236,1.1294,1.1335,1.1389,1.1429,1.1505,1.1535,1.16,1.1655,1.1751,1.1804,1.1865,1.1878,1.1894,1.1887,1.1873,1.1878,1.1875,1.1879,1.1894,1.1894,1.1894,1.1894,0,1.1062,1.1087,1.1147,1.1215,1.1263,1.1319,1.1375,1.1402,1.1465,1.1508,1.1573,1.1615,1.1698,1.1761,1.1827,1.1866,1.189,1.1896,1.1904,1.1893,1.1873,1.1884,1.1843,1.1895,1.1895,1.1895,1.1895,1.1895,1.1077,1.1116,1.1184,1.1248,1.1296,1.1347,1.1389,1.1437,1.1492,1.1566,1.1593,1.1658,1.1719,1.1811,1.1849,1.1899,1.1903,1.1915,1.1918,1.192,1.1919,1.1864,1.1911,1.1912,1.1912,1.1912,1.1912,0,1.1112,1.1157,1.1215,1.1294,1.1343,1.1363,1.1426,1.1465,1.1523,1.1579,1.1632,1.1705,1.1766,1.1823,1.1886,1.1915,1.1927,1.193,1.1928,1.1936,1.1912,1.1899,1.1918,1.1918,1.1918,1.1918,1.1918,1.1918,1.1136,1.1203,1.1236,1.1326,1.1371,1.1437,1.1471,1.1518,1.1563,1.1643,1.1694,1.1732,1.1788,1.1854,1.191,1.1925,1.1946,1.1945,1.1963,1.194,1.1938,1.1937,1.1925,1.1949,1.1949,1.1983,1.1984,1.1984]}]]